Weather History for Benton Harbor, MI

Change the Weather History Date:

Tuesday, April 8, 2014

  Actual Average Record
Temperature  
Mean Temperature 40 °F -  
Max Temperature 46 °F 54 °F 77 °F (1991)
Min Temperature 32 °F 34 °F 15 °F (1972)
Degree Days  
Heating Degree Days 26    
Moisture  
Dew Point 34 °F    
Average Humidity 85    
Maximum Humidity 97    
Minimum Humidity 68    
Precipitation  
Precipitation 0.00 in - - ()
Sea Level Pressure  
Sea Level Pressure 29.75 in    
Wind  
Wind Speed 5 mph (WNW)    
Max Wind Speed 8 mph    
Max Gust Speed 16 mph    
Visibility 7 miles    
Events      
Averages and records for this station are not official NWS values.
T = Trace of Precipitation, MM = Missing Value Source: NWS Daily Summary

Daily Weather History Graph

Daily Weather History Graph

Search for Another Location

Airport:

Trip Planner

Search our weather history database for the weather conditions in past years. The results will help you decide how hot, cold, wet, or windy it might be!

Date:

Astronomy

Apr. 08, 2014 Rise Set
Actual Time 7:16 AM EDT 8:19 PM EDT
Civil Twilight 6:47 AM EDT 8:47 PM EDT
Nautical Twilight 6:13 AM EDT 9:22 PM EDT
Astronomical Twilight 5:38 AM EDT 9:57 PM EDT
Moon 2:06 PM EDT (4/8) 3:35 AM EDT (4/8)
Length of Visible Light 13h 59m
Length of Day
13h 02m
Waxing Gibbous, 62% of the Moon is Illuminated
Apr 8
Waxing Gibbous
Apr 15
Full
Apr 22
Last Quarter
Apr 29
New
May 6
First Quarter

Hourly Weather History & Observations

Time (EDT) Temp. Windchill Dew Point Humidity Pressure Visibility Wind Dir Wind Speed Gust Speed Precip Events Conditions
12:53 AM 35.1 °F 32.2 °F 30.9 °F 85% 29.60 in 9.0 mi West 3.5 mph - N/A   Partly Cloudy
1:53 AM 34.0 °F 27.2 °F 30.9 °F 89% 29.61 in 8.0 mi West 8.1 mph - N/A   Clear
2:53 AM 35.1 °F 28.6 °F 32.0 °F 89% 29.61 in 8.0 mi West 8.1 mph - N/A   Clear
3:53 AM 35.1 °F 31.0 °F 32.0 °F 89% 29.62 in 9.0 mi WSW 4.6 mph - N/A   Clear
4:53 AM 37.9 °F 33.5 °F 32.0 °F 79% 29.62 in 10.0 mi WNW 5.8 mph - N/A   Clear
5:53 AM 34.0 °F 28.8 °F 30.9 °F 89% 29.64 in 9.0 mi WSW 5.8 mph - N/A   Mostly Cloudy
6:53 AM 36.0 °F 33.3 °F 33.1 °F 89% 29.66 in 9.0 mi Variable 3.5 mph - N/A   Mostly Cloudy
7:53 AM 37.0 °F 32.4 °F 33.1 °F 86% 29.68 in 7.0 mi NNW 5.8 mph - N/A   Overcast
8:53 AM 37.0 °F 33.3 °F 33.1 °F 86% 29.70 in 6.0 mi North 4.6 mph - N/A   Mostly Cloudy
9:38 AM 37.0 °F 33.3 °F 35.1 °F 93% 29.70 in 5.0 mi NNW 4.6 mph - 0.00 in   Overcast
9:53 AM 37.0 °F 32.4 °F 35.1 °F 93% 29.73 in 5.0 mi NW 5.8 mph - 0.00 in   Overcast
10:07 AM 37.0 °F 32.4 °F 34.0 °F 89% 29.71 in 5.0 mi Variable 5.8 mph - N/A   Overcast
10:53 AM 37.0 °F 33.3 °F 35.1 °F 93% 29.74 in 5.0 mi Variable 4.6 mph - N/A   Overcast
11:53 AM - - - N/A% 29.76 in - North - - N/A   Unknown
12:53 PM - - - N/A% 29.77 in - North - - N/A   Unknown
1:53 PM 44.1 °F 40.8 °F 35.1 °F 71% 29.79 in 10.0 mi Variable 5.8 mph - N/A   Scattered Clouds
2:53 PM 43.0 °F 40.3 °F 35.1 °F 74% 29.80 in 9.0 mi Variable 4.6 mph - N/A   Clear
3:53 PM 45.0 °F 40.6 °F 36.0 °F 71% 29.80 in 7.0 mi NW 8.1 mph 16.1 mph N/A   Clear
4:53 PM 46.0 °F 43.1 °F 36.0 °F 68% 29.80 in 8.0 mi Variable 5.8 mph - N/A   Clear
5:53 PM 45.0 °F 40.6 °F 36.0 °F 71% 29.82 in 9.0 mi NNW 8.1 mph - N/A   Clear
6:53 PM 45.0 °F 43.5 °F 36.0 °F 71% 29.83 in 9.0 mi Variable 3.5 mph - N/A   Clear
7:53 PM 42.1 °F 40.2 °F 35.1 °F 76% 29.85 in 8.0 mi WNW 3.5 mph - N/A   Clear
8:53 PM 34.0 °F 28.8 °F 33.1 °F 96% 29.88 in 6.0 mi West 5.8 mph - N/A   Clear
9:53 PM 36.0 °F 31.1 °F 35.1 °F 97% 29.90 in 7.0 mi West 5.8 mph - N/A   Clear
10:53 PM 33.1 °F 27.7 °F 32.0 °F 96% 29.92 in 5.0 mi West 5.8 mph - N/A   Clear
11:53 PM 32.0 °F 26.4 °F 30.9 °F 96% 29.90 in 5.0 mi West 5.8 mph - N/A   Clear